Location: Unspecified
(35.6961°N, 0.0000°E)
Time: 04:53:07
(UTC+00:00)

Altair - Pass Details

Date: 28 May 2019
Orbit: 1501 x 1683 km, 47.2° (Epoch: 18 June)

Event Time Altitude Azimuth Distance (km) Brightness Sun altitude
Rises 03:12:04 0° 250° (WSW) 4,874 - -16.6°
Reaches altitude 10° 03:15:15 10° 254° (WSW) 3,905 - -16.1°
Exits shadow 03:16:35 15° 256° (WSW) 3,511 8.9 -15.9°
Maximum altitude 03:25:14 63° 334° (NNW) 1,839 7.9 -14.6°
Drops below altitude 10° 03:35:20 10° 55° (NE) 3,941 11.1 -13.1°
Sets 03:38:34 0° 59° (ENE) 4,920 12.1 -12.5°
